Location: ?????????
(53.2086°N, 54.0693°E)
Time: 12:22:56
(UTC+00:00)

SL-16 R/B - Pass Details

Date: 08 December 2019
Orbit: 840 x 849 km, 71.0° (Epoch: 26 January)

Event Time Altitude Azimuth Distance (km) Brightness Sun altitude
Rises 14:26:22 0° 174° (S) 3,394 5.4 -19.6°
Reaches altitude 10° 14:29:05 10° 163° (SSE) 2,465 4.6 -20.0°
Enters shadow 14:32:46 27° 125° (SE) 1,569 3.2 -20.5°
